Temp
21 21 22 22 22 22 22 21 21 21 21 21 21 20 21 21 22 22 22 23 23 23 23 23 23 23 24 25 24 24 25 24 25 26 26 26 23 23 24 24 24 24 25
17 18 18 19 19 19 20 20 20 20 20 20 21 21 20 20 21 22 22 22 23 23 23 23 23 24 23 23 24 24 24 24 24 25 25 25 25 24 23 23 24 25 25
15 16 17 18 18 19 19 19 18 19 19 20 20 20 20 20 20 21 21 22 22 22 23 23 23 23 23 24 24 24 24 24 24 24 25 25 25 24 24 24 24 24 24
14 14 15 16 16 16 16 17 18 18 18 19 19 19 19 19 20 20 20 21 21 22 22 22 22 23 23 23 24 24 24 23 24 24 25 25 25 25 24 24 25 26 26
13 13 13 13 14 15 15 15 16 16 17 18 18 18 18 19 20 20 20 20 20 21 21 22 22 22 23 23 23 23 24 23 23 24 25 25 25 25 25 25 25 25 25
12 12 12 12 12 13 14 14 15 16 16 16 17 17 17 18 19 20 20 20 20 20 20 21 21 22 21 21 20 21 21 22 23 24 26 26 25 25 25 25 25 25 26
11 11 11 11 11 11 12 12 13 14 14 14 15 15 16 16 17 18 20 19 19 20 20 20 20 20 21 21 24 25 24 24 23 22 24 24 25 24 24 24 23 23 24
11 11 11 11 11 11 11 11 11 12 13 13 14 14 15 15 15 18 19 18 17 18 19 20 20 20 20 23 23 26 25 23 22 20 20 21 22 23 22 23 22 22 23
10 11 10 10 10 10 11 11 11 11 11 12 12 13 13 14 14 15 17 15 17 17 19 19 20 20 20 22 22 21 20 21 21 21 21 22 23 22 21 21 20 20 22
11 10 10 10 10 10 10 10 10 10 11 11 11 11 12 13 13 14 16 15 16 18 18 19 20 20 19 21 21 20 19 20 21 22 20 21 21 20 21 20 20 21 21
10 10 9 9 9 9 9 9 9 10 10 10 10 9 10 12 12 13 14 14 16 18 18 19 19 20 20 19 20 19 19 20 20 20 20 20 21 21 21 20 19 20 20
11 10 10 9 9 9 9 9 9 9 9 10 10 9 10 10 12 12 12 13 13 15 17 19 19 19 19 19 18 18 19 19 18 18 19 19 20 20 20 20 19 19 19
10 9 10 10 9 10 9 10 10 10 10 10 10 10 10 12 14 14 13 13 14 14 16 17 18 18 18 18 18 18 18 18 17 17 18 18 18 19 19 19 19 19 19
10 9 10 9 10 10 10 10 10 10 10 10 10 10 10 11 12 13 15 16 16 17 16 16 18 18 18 18 18 18 18 18 18 17 17 17 17 18 18 18 18 18 18
10 9 9 10 10 9 10 10 10 10 11 10 10 10 10 11 12 13 15 15 16 17 17 16 17 17 17 17 17 17 17 17 17 17 17 17 17 17 18 18 18 18 18
11 10 9 10 10 10 10 10 11 11 12 11 10 10 10 11 11 12 13 15 15 14 16 16 16 16 16 16 16 17 17 17 17 17 17 17 17 16 17 17 17 17 17
11 11 11 10 10 9 9 9 9 11 11 11 11 11 10 10 10 11 12 14 14 13 16 16 16 16 16 16 16 16 16 16 16 15 15 15 14 14 14 14 14 15 15
11 13 11 10 10 9 10 9 9 9 10 11 11 11 11 10 11 13 13 12 12 14 16 16 16 16 16 16 16 15 15 15 15 16 16 15 14 14 14 13 13 13 13
12 13 12 11 10 9 9 11 9 9 10 10 10 10 10 11 12 12 13 15 15 15 15 15 15 15 15 15 15 15 15 15 15 14 15 15 15 14 14 14 13 14 13
14 14 11 11 10 10 10 11 10 10 10 10 10 10 9 11 11 11 12 14 14 14 14 14 14 15 15 15 15 15 15 16 15 15 15 15 15 14 14 14 14 14 13
15 15 14 13 12 13 11 11 11 10 9 10 9 10 10 9 9 9 10 11 11 12 13 13 14 14 14 15 14 15 15 15 15 15 16 15 15 16 16 16 15 15 15
16 16 16 16 14 14 12 11 11 11 11 10 10 10 10 10 10 10 9 11 12 13 12 13 13 13 13 14 15 15 15 14 14 15 15 15 16 17 18 18 18 18 18
16 17 17 17 15 15 15 14 13 13 12 12 12 12 12 11 10 10 11 12 12 12 13 12 13 13 12 13 13 12 14 13 14 16 17 17 17 17 17 18 18 18 18
17 17 17 17 17 17 17 16 16 15 14 15 14 13 13 13 12 12 11 10 10 10 13 13 13 13 12 12 12 11 11 12 12 13 14 15 16 16 16 15 13 14 15
18 18 18 17 17 17 16 16 16 16 16 16 15 15 15 14 14 13 12 11 10 10 10 10 10 10 10 10 10 11 11 12 12 11 12 12 12 13 13 15 14 15 14
18 18 18 17 17 17 16 16 16 16 16 15 15 15 14 15 14 14 13 12 12 11 11 11 10 10 10 10 10 10 10 10 11 11 11 11 12 12 12 12 12 13 13
Height
844 845 846 846 845 842 839 838 836 834 831 829 826 824 822 822 822 822 820 819 819 819 821 823 823 824 824 825 825 826 825 825 820 817 817 817 816 815 813 811 809 806 804
846 846 845 844 841 839 837 834 833 830 827 825 822 820 818 816 815 814 813 812 811 811 811 813 813 814 815 816 817 817 817 817 817 812 811 811 809 808 806 804 803 801 798
847 845 843 841 839 836 833 831 828 825 823 821 818 816 814 812 809 807 806 804 803 803 802 803 803 805 805 806 808 810 811 811 810 809 804 804 802 802 800 798 797 795 792
845 843 839 836 834 831 826 823 822 819 816 815 812 810 807 806 804 802 798 796 793 792 793 793 794 796 797 797 798 801 804 805 804 802 798 796 795 794 793 791 788 787 786
842 838 834 830 827 824 821 818 816 813 809 808 804 801 799 798 797 794 792 788 785 783 783 783 784 785 786 788 790 793 795 797 798 795 789 787 785 786 785 784 781 780 779
830 828 826 823 819 817 814 812 809 805 803 800 796 793 791 788 787 785 783 781 778 776 773 772 773 775 778 778 781 783 785 785 785 786 781 777 776 777 778 778 777 774 770
835 831 826 821 816 811 807 804 801 798 795 791 787 785 781 779 777 776 776 773 770 767 764 763 762 764 765 762 759 752 763 768 768 771 771 768 768 771 771 770 770 770 765
837 833 828 822 815 810 804 798 792 789 785 780 777 774 771 767 767 765 764 763 760 756 754 753 751 752 751 749 745 738 739 744 752 759 760 760 760 763 764 763 763 763 761
836 830 825 818 811 804 797 792 786 781 775 770 766 763 759 754 755 754 754 753 749 744 741 741 742 740 737 741 740 738 739 744 747 747 750 749 749 753 756 757 755 759 754
828 823 818 811 804 796 788 781 775 770 763 759 753 751 747 741 741 740 741 742 737 733 730 728 727 726 728 731 733 733 735 737 739 742 743 739 741 742 745 746 747 748 748
824 817 810 804 795 786 777 770 764 758 751 745 740 737 733 730 727 725 725 726 724 722 719 716 716 716 718 720 723 726 727 731 732 734 733 735 735 736 736 737 737 739 738
814 808 803 795 787 776 766 756 749 743 735 729 727 721 718 715 713 710 710 710 709 711 706 705 706 708 709 712 713 715 719 723 726 727 728 727 728 727 727 728 727 728 725
807 801 794 786 777 767 755 744 736 729 722 714 712 707 703 702 699 697 696 696 694 697 695 696 698 698 700 702 704 706 711 715 717 718 719 717 718 721 721 721 721 719 715
801 794 787 781 769 758 746 735 725 715 707 701 697 693 691 689 688 687 685 683 682 684 683 685 687 688 691 694 698 700 703 706 709 709 709 710 711 712 713 714 712 710 706
797 792 786 776 766 753 740 726 714 702 693 687 685 682 680 677 676 678 676 674 675 674 675 676 676 680 683 687 690 692 694 698 700 702 705 706 707 707 707 707 707 704 700
791 786 781 773 764 753 738 720 705 691 680 676 673 673 669 667 667 668 666 664 666 670 667 668 669 672 676 680 684 687 690 693 697 699 701 702 703 703 704 704 701 699 698
788 782 775 767 761 755 739 723 707 690 680 673 669 665 658 653 653 655 656 656 658 660 660 659 662 666 670 675 679 684 688 692 694 697 699 702 702 702 702 701 699 697 697
783 774 768 764 760 757 748 733 721 705 689 676 669 663 653 644 639 640 643 649 651 652 653 655 660 665 669 673 678 682 687 690 693 696 698 700 701 702 702 703 700 699 699
775 768 764 762 756 755 750 742 730 718 701 686 673 662 656 649 638 637 643 646 648 649 652 657 662 666 672 676 680 685 690 693 694 696 699 701 702 704 704 704 704 704 705
771 765 761 758 754 751 747 744 733 723 714 703 688 680 669 662 655 650 648 647 648 655 659 663 667 673 678 682 685 687 690 694 696 697 697 699 702 705 706 704 706 706 710
768 763 758 755 749 745 741 740 735 728 720 715 708 702 690 683 668 666 664 664 664 666 668 670 673 680 684 686 686 691 693 693 694 698 699 701 702 703 702 702 704 706 707
766 761 756 753 748 743 741 736 734 729 723 719 713 709 702 700 691 686 683 680 677 679 679 681 682 685 689 691 693 694 696 698 701 703 703 702 704 704 704 703 703 703 705
764 759 755 752 748 743 740 736 731 729 723 721 716 713 711 711 708 705 701 699 697 693 694 696 694 695 698 698 698 701 703 703 704 703 704 704 705 705 704 704 704 703 704
762 757 753 750 747 744 741 738 734 730 727 723 720 719 717 716 713 712 709 709 707 705 704 709 707 706 707 705 706 708 708 709 707 705 707 708 708 707 708 707 707 707 706
759 756 752 748 745 743 741 739 736 733 731 729 725 723 721 719 718 716 714 713 712 710 712 713 712 713 713 713 714 714 714 712 712 712 712 712 713 712 712 711 710 709 710
755 752 749 746 744 742 741 739 737 735 732 730 729 728 725 723 722 721 720 719 718 717 718 719 719 720 719 719 719 718 717 716 715 715 717 717 716 717 717 715 714 712 712
Wind_Speed
14 13 12 12 13 14 13 12 13 15 15 16 17 19 21 23 23 24 25 25 25 24 24 23 24 26 24 22 21 23 24 23 22 26 24 22 20 19 21 18 17 15 15
15 14 14 16 17 16 17 17 17 17 17 17 16 17 19 23 25 25 26 26 26 27 28 27 28 24 24 24 23 23 24 23 24 23 25 24 25 24 22 18 18 17 17
17 17 18 18 19 20 20 21 20 20 19 18 16 16 17 18 22 26 28 28 27 28 28 29 30 29 26 25 23 23 23 23 23 24 26 24 23 20 20 20 19 18 18
21 21 21 21 22 24 25 24 23 22 22 21 19 18 18 19 21 23 25 29 29 29 30 30 32 30 30 28 26 25 27 23 24 23 26 25 23 21 20 20 20 18 18
22 24 26 27 27 27 26 26 25 25 25 24 22 22 21 21 22 21 23 25 28 31 30 30 31 31 32 30 25 22 23 24 24 26 27 25 24 21 20 19 18 18 17
33 32 32 32 32 31 29 29 28 27 25 26 25 24 25 25 26 28 29 28 28 29 30 31 32 31 28 27 22 23 30 31 29 30 29 26 26 24 23 22 20 19 14
30 33 35 33 34 34 34 33 32 31 31 30 30 29 29 29 30 36 34 32 30 30 30 31 31 30 28 28 24 19 35 43 42 41 34 31 29 27 23 22 22 22 20
28 30 30 30 32 32 33 35 35 34 34 34 34 33 34 35 33 37 39 36 32 34 34 35 35 34 38 41 43 44 55 46 40 37 37 36 31 28 26 25 24 24 24
26 28 31 32 34 35 35 35 36 35 36 35 36 35 35 37 34 38 40 30 31 35 36 35 37 40 45 44 37 38 34 31 26 25 34 34 34 34 30 20 21 18 21
27 30 31 33 35 37 38 39 38 37 38 36 37 36 37 40 38 42 42 32 32 34 34 35 39 43 42 47 44 37 30 33 24 25 25 22 28 30 23 22 22 21 19
25 27 31 33 38 41 43 42 40 39 39 38 37 36 37 37 37 40 43 37 35 33 33 32 32 36 43 44 43 33 33 29 26 27 25 24 20 19 20 21 25 29 26
22 26 30 33 38 39 41 43 43 41 40 38 35 36 37 36 37 40 41 44 42 36 35 31 33 31 32 36 42 40 36 32 27 20 18 18 22 20 19 21 26 24 27
28 32 36 38 39 40 39 37 37 37 37 35 32 31 32 32 31 31 36 37 39 42 40 35 32 32 32 29 27 27 31 29 26 21 20 21 21 22 23 20 25 27 28
32 33 38 37 42 42 39 35 34 34 34 32 30 30 30 28 28 28 28 26 31 37 43 42 38 33 27 23 22 21 24 26 28 23 21 22 21 17 16 16 19 22 23
32 32 30 37 39 39 41 37 35 37 36 32 30 31 26 27 28 27 28 18 20 29 31 25 23 23 22 21 21 20 19 14 12 10 12 11 11 11 11 11 12 14 15
28 26 27 34 31 38 39 41 38 36 25 33 41 40 32 33 34 36 40 37 38 30 22 20 18 19 18 19 17 15 13 12 8 7 5 3 4 6 7 8 8 9 10
22 24 23 28 23 31 40 40 38 37 27 16 16 15 34 52 49 47 44 43 42 43 20 18 17 18 16 17 14 12 10 9 8 7 5 4 3 2 2 3 4 4 5
20 24 20 20 21 21 34 39 38 36 27 28 30 24 27 13 24 32 37 32 17 19 18 16 15 15 14 14 15 16 18 16 13 12 11 9 10 9 9 10 14 16 16
16 19 18 17 23 16 19 34 30 34 35 32 34 41 40 24 27 13 12 7 11 16 20 20 19 19 19 16 18 17 12 11 12 12 12 9 7 8 9 9 12 16 19
17 22 20 15 16 12 12 20 28 25 25 34 38 40 42 33 30 25 26 23 24 24 22 21 21 20 16 15 13 11 10 10 8 8 8 7 5 3 3 5 6 13 14
16 17 18 12 13 13 10 8 13 21 21 17 23 38 36 29 36 34 31 28 28 24 21 22 27 24 19 18 17 15 14 13 10 6 4 4 3 3 3 3 5 5 8
16 17 16 13 11 14 9 12 12 18 18 16 14 13 24 29 26 36 30 32 31 28 27 25 25 23 21 20 18 18 18 17 13 8 6 6 3 2 3 3 3 4 5
14 15 15 13 11 12 13 11 7 5 10 7 10 14 13 9 15 21 27 28 30 31 27 25 26 24 21 20 19 16 13 12 12 11 10 8 7 6 5 4 4 4 4
13 13 13 13 12 11 11 12 11 11 8 8 8 7 7 6 9 11 11 11 14 16 18 17 21 21 21 22 22 20 18 16 15 15 13 11 10 9 8 10 10 10 9
15 13 14 13 13 11 11 12 13 12 11 11 11 11 10 9 10 11 12 12 12 15 15 15 17 18 20 22 21 21 19 20 19 17 15 14 13 12 10 8 8 4 5
13 13 13 11 11 10 11 11 11 12 13 12 11 11 11 12 11 9 8 9 10 11 12 13 14 15 15 17 16 16 18 18 19 17 13 12 12 11 10 9 10 8 8
Wind_Direction
4 353 345 336 330 331 328 324 323 321 323 321 311 298 282 277 273 267 260 257 252 255 256 254 256 260 256 256 256 256 257 259 265 277 278 279 276 280 287 288 291 283 286
352 340 323 314 313 310 308 309 309 308 311 315 315 312 304 292 275 270 265 261 257 255 256 256 254 254 251 256 254 253 254 255 256 270 278 278 274 277 279 278 286 282 278
338 333 323 316 312 306 303 299 298 300 299 301 303 304 305 300 293 280 269 263 263 261 259 255 253 250 245 249 248 251 256 256 256 263 276 280 278 275 276 279 283 282 279
327 323 319 319 313 308 305 302 296 290 287 288 289 290 297 298 296 289 278 272 260 262 263 258 255 250 250 248 253 255 259 261 258 258 269 276 273 268 267 274 281 277 277
329 327 323 317 312 310 308 304 298 291 286 280 280 284 289 291 292 291 290 285 274 266 261 259 258 252 249 251 252 258 262 265 268 264 264 266 265 263 255 266 270 278 279
340 333 328 323 318 313 306 302 300 296 288 284 280 282 282 283 282 287 292 286 282 273 263 257 249 249 250 251 255 274 276 264 261 264 264 260 262 257 267 267 265 271 275
333 328 324 319 315 313 310 305 299 293 290 285 282 280 277 275 279 286 288 286 278 271 266 256 244 233 228 222 222 251 277 267 256 253 257 252 259 259 262 262 260 261 257
322 320 319 314 310 308 304 301 299 295 287 284 282 280 276 274 273 282 286 282 276 267 262 254 239 229 227 242 242 234 243 251 251 256 250 255 254 258 257 260 265 265 266
318 315 312 308 303 300 295 291 289 288 285 280 275 274 272 272 271 276 280 273 271 266 260 251 242 230 232 235 243 240 257 260 257 257 261 263 264 266 254 263 265 261 262
319 314 308 303 299 296 291 289 287 284 279 280 279 272 269 268 268 270 275 267 265 262 261 255 245 233 229 238 244 246 254 257 253 250 255 275 260 256 256 250 251 249 253
316 310 304 306 296 292 291 288 285 282 277 274 275 273 268 265 264 262 265 261 257 258 256 250 246 241 237 242 246 236 238 254 258 263 265 257 249 248 253 258 252 247 248
309 309 313 308 307 302 292 286 281 276 272 269 267 268 266 264 262 262 262 264 256 248 250 248 246 245 243 245 245 242 246 254 253 252 245 251 257 259 256 258 258 250 249
316 313 322 322 318 315 305 297 284 275 268 265 260 263 265 265 261 261 267 267 263 251 247 249 250 246 245 245 248 248 240 242 236 235 242 249 255 259 262 261 262 261 255
300 299 316 320 324 322 317 305 300 277 265 258 253 257 261 261 259 265 270 260 260 253 250 250 248 236 231 233 227 227 228 224 234 246 250 257 259 257 257 260 268 267 251
295 299 307 313 326 327 327 316 301 291 279 254 249 252 254 258 257 265 259 275 270 261 251 237 205 193 197 211 223 227 214 202 204 218 232 234 245 245 252 254 264 270 241
297 301 298 305 321 342 338 341 331 327 306 269 260 254 259 258 261 263 264 268 282 288 231 202 192 187 190 188 183 180 179 183 187 209 226 243 285 295 285 276 277 272 258
296 301 302 302 317 344 351 348 352 346 4 344 313 298 279 261 260 264 267 265 276 283 208 189 176 166 158 160 162 169 158 174 175 160 137 109 87 49 9 343 338 337 318
311 302 293 291 300 341 7 354 353 352 355 14 10 3 2 296 263 259 260 266 233 181 159 144 141 150 154 153 151 150 139 132 124 117 105 94 79 79 74 71 73 68 59
309 299 301 304 298 308 342 353 348 358 3 7 14 15 15 33 66 77 138 156 128 114 109 101 99 106 110 111 112 124 125 125 120 119 116 106 98 105 106 90 85 83 87
313 312 313 307 310 293 295 339 341 344 359 17 19 18 13 19 34 50 63 71 79 83 84 87 94 96 96 103 109 117 126 120 124 127 123 136 135 143 125 124 127 122 119
316 317 326 330 307 303 279 289 336 333 339 357 39 42 30 23 25 34 31 47 62 63 72 81 90 93 97 92 89 93 89 80 74 68 84 126 126 125 123 144 154 161 145
322 321 329 332 324 318 311 294 285 292 308 314 324 6 46 50 45 45 34 49 56 62 62 67 74 78 84 87 84 81 78 73 69 74 82 70 59 65 91 73 90 123 165
322 326 327 333 337 345 352 341 341 288 272 289 322 344 16 42 71 68 70 63 52 48 49 63 73 81 80 80 80 67 65 60 52 49 48 49 51 45 34 44 53 64 64
315 318 322 324 322 334 345 355 0 7 7 350 344 330 332 344 13 20 47 72 75 87 95 79 75 75 75 77 73 64 61 55 52 51 54 50 46 46 58 57 49 52 62
310 314 320 320 328 331 339 345 351 358 10 17 18 22 31 39 42 42 45 57 67 82 81 82 81 79 77 78 73 67 59 56 51 47 45 45 39 36 29 30 23 16 24
300 307 317 321 332 341 345 349 354 357 359 3 11 18 22 25 28 33 45 59 72 80 84 85 89 87 81 75 66 56 48 42 39 36 32 25 25 19 13 12 12 12 10